| time (UTC) | temp F | wind direction | speed knots | gust knots | rain 1hr in | rain 24hr in | rain mn in | humidity % | barometer mb |
| 20260504232003 | 52 | 298 | 14.8 | 20.9 | 0.00 | 0.74 | 0.48 | 64 | 1002.3 |
| 20260504231514 | 52 | 236 | 14.8 | 20.9 | 0.00 | 0.75 | 0.48 | 65 | 1002.3 |
| 20260504231003 | 52 | 255 | 12.2 | 17.4 | 0.00 | 0.76 | 0.48 | 65 | 1002.3 |
| 20260504230505 | 52 | 255 | 10.4 | 20.0 | 0.00 | 0.77 | 0.48 | 65 | 1002.2 |
| 20260504230017 | 52 | 254 | 7.8 | 26.9 | 0.00 | 0.77 | 0.48 | 65 | 1002.1 |
| 20260504225505 | 52 | 234 | 10.4 | 26.9 | 0.00 | 0.77 | 0.48 | 64 | 1001.9 |
| 20260504225006 | 53 | 234 | 11.3 | 21.7 | 0.00 | 0.78 | 0.48 | 64 | 1001.8 |
| 20260504224520 | 53 | 265 | 9.6 | 16.5 | 0.00 | 0.79 | 0.48 | 64 | 1001.8 |
| 20260504224006 | 53 | 259 | 8.7 | 16.5 | 0.00 | 0.79 | 0.48 | 63 | 1001.7 |
| 20260504223508 | 53 | 267 | 8.7 | 20.0 | 0.00 | 0.80 | 0.48 | 62 | 1001.6 |
| 20260504223026 | 53 | 236 | 10.4 | 21.7 | 0.00 | 0.80 | 0.48 | 61 | 1001.6 |
| 20260504222510 | 53 | 240 | 14.8 | 24.3 | 0.00 | 0.81 | 0.48 | 61 | 1001.5 |
| 20260504222009 | 53 | 251 | 12.2 | 28.7 | 0.00 | 0.81 | 0.48 | 60 | 1001.4 |
| 20260504221525 | 54 | 233 | 13.0 | 28.7 | 0.00 | 0.82 | 0.48 | 59 | 1001.3 |
| 20260504221012 | 54 | 260 | 13.0 | 23.5 | 0.00 | 0.83 | 0.48 | 58 | 1001.2 |
| 20260504220504 | 54 | 227 | 13.9 | 26.1 | 0.00 | 0.84 | 0.48 | 57 | 1001.2 |
| 20260504220014 | 54 | 253 | 12.2 | 26.1 | 0.00 | 0.85 | 0.48 | 57 | 1001.0 |
| 20260504215506 | 54 | 290 | 13.0 | 31.3 | 0.00 | 0.85 | 0.48 | 55 | 1001.1 |
| 20260504215005 | 55 | 261 | 19.1 | 31.3 | 0.00 | 0.86 | 0.48 | 53 | 1001.3 |
| 20260504214516 | 55 | 274 | 14.8 | 25.2 | 0.00 | 0.87 | 0.48 | 52 | 1001.2 |
| 20260504214005 | 55 | 250 | 14.8 | 21.7 | 0.00 | 0.88 | 0.48 | 50 | 1001.2 |
| 20260504213506 | 56 | 255 | 15.6 | 21.7 | 0.00 | 0.88 | 0.48 | 49 | 1001.1 |
| 20260504213022 | 56 | 240 | 13.0 | 23.5 | 0.00 | 0.89 | 0.48 | 47 | 1001.1 |
| 20260504212508 | 56 | 278 | 16.5 | 30.4 | 0.00 | 0.90 | 0.48 | 45 | 1001.1 |
| 20260504212010 | 56 | 239 | 17.4 | 30.4 | 0.00 | 0.91 | 0.48 | 42 | 1001.0 |
| 20260504211524 | 57 | 309 | 15.6 | 27.8 | 0.00 | 0.92 | 0.48 | 41 | 1000.9 |
| 20260504211009 | 57 | 271 | 16.5 | 23.5 | 0.00 | 0.92 | 0.48 | 41 | 1000.9 |
| 20260504210509 | 57 | 263 | 13.9 | 25.2 | 0.00 | 0.92 | 0.48 | 41 | 1000.7 |
| 20260504210026 | 57 | 271 | 15.6 | 28.7 | 0.00 | 0.93 | 0.48 | 41 | 1000.7 |
| 20260504205509 | 57 | 317 | 13.0 | 32.2 | 0.00 | 0.94 | 0.48 | 39 | 1000.7 |
| 20260504205008 | 57 | 269 | 19.1 | 32.2 | 0.00 | 0.95 | 0.48 | 38 | 1000.8 |
| 20260504204514 | 57 | 195 | 15.6 | 33.0 | 0.00 | 0.96 | 0.48 | 38 | 1000.8 |
| 20260504204005 | 58 | 251 | 17.4 | 33.0 | 0.00 | 0.97 | 0.48 | 36 | 1000.5 |
| 20260504203506 | 58 | 251 | 18.2 | 26.9 | 0.00 | 0.99 | 0.48 | 36 | 1000.4 |
| 20260504203019 | 58 | 268 | 14.8 | 26.1 | 0.00 | 1.00 | 0.48 | 37 | 1000.4 |
| 20260504202508 | 59 | 280 | 16.5 | 26.1 | 0.00 | 1.02 | 0.48 | 36 | 1000.2 |
| 20260504202006 | 59 | 283 | 13.0 | 28.7 | 0.00 | 1.03 | 0.48 | 36 | 1000.3 |
| 20260504201522 | 59 | 270 | 15.6 | 28.7 | 0.00 | 1.04 | 0.48 | 35 | 1000.3 |
| 20260504201013 | 60 | 264 | 10.4 | 25.2 | 0.00 | 1.05 | 0.48 | 36 | 1000.2 |
| 20260504200510 | 59 | 289 | 18.2 | 25.2 | 0.00 | 1.06 | 0.48 | 34 | 1000.2 |
| 20260504200026 | 59 | 249 | 13.0 | 23.5 | 0.00 | 1.07 | 0.48 | 34 | 1000.0 |
| 20260504195510 | 60 | 228 | 13.9 | 29.5 | 0.00 | 1.08 | 0.48 | 34 | 1000.0 |
| 20260504195012 | 60 | 264 | 15.6 | 29.5 | 0.00 | 1.10 | 0.48 | 34 | 999.9 |
| 20260504194530 | 60 | 274 | 14.8 | 29.5 | 0.00 | 1.11 | 0.48 | 34 | 999.9 |
| 20260504194009 | 60 | 267 | 17.4 | 29.5 | 0.00 | 1.13 | 0.48 | 33 | 999.8 |
| 20260504193509 | 60 | 264 | 13.9 | 27.8 | 0.00 | 1.14 | 0.48 | 35 | 999.9 |
| 20260504193017 | 59 | 249 | 17.4 | 27.8 | 0.00 | 1.16 | 0.48 | 33 | 999.8 |
| 20260504192505 | 59 | 277 | 15.6 | 33.0 | 0.00 | 1.17 | 0.48 | 33 | 999.8 |
| 20260504192009 | 59 | 263 | 13.9 | 33.0 | 0.00 | 1.19 | 0.48 | 33 | 999.9 |
| 20260504191522 | 59 | 278 | 16.5 | 25.2 | 0.00 | 1.22 | 0.48 | 33 | 999.9 |
| 20260504191007 | 59 | 250 | 11.3 | 33.0 | 0.00 | 1.24 | 0.48 | 34 | 999.7 |
| 20260504190511 | 58 | 286 | 15.6 | 33.0 | 0.00 | 1.26 | 0.48 | 33 | 999.8 |
| 20260504190026 | 58 | 266 | 20.0 | 33.0 | 0.00 | 1.29 | 0.48 | 33 | 999.8 |
| 20260504185508 | 58 | 257 | 14.8 | 33.0 | 0.00 | 1.31 | 0.48 | 34 | 999.7 |
| 20260504185010 | 58 | 265 | 18.2 | 31.3 | 0.00 | 1.33 | 0.48 | 33 | 1000.0 |
| 20260504184525 | 58 | 266 | 14.8 | 31.3 | 0.00 | 1.36 | 0.48 | 35 | 999.8 |
| 20260504184011 | 58 | 247 | 13.9 | 28.7 | 0.00 | 1.38 | 0.48 | 35 | 999.6 |
| 20260504183514 | 58 | 253 | 13.9 | 28.7 | 0.00 | 1.40 | 0.48 | 35 | 999.8 |
| 20260504183027 | 57 | 264 | 17.4 | 26.1 | 0.00 | 1.43 | 0.48 | 34 | 999.7 |
| 20260504182513 | 58 | 300 | 11.3 | 27.8 | 0.00 | 1.45 | 0.48 | 37 | 999.8 |
| 20260504182011 | 57 | 233 | 13.9 | 27.8 | 0.00 | 1.48 | 0.48 | 36 | 999.9 |
| 20260504181526 | 57 | 248 | 14.8 | 25.2 | 0.00 | 1.49 | 0.48 | 38 | 999.8 |
| 20260504181007 | 57 | 303 | 17.4 | 25.2 | 0.00 | 1.50 | 0.48 | 35 | 999.8 |
| 20260504180510 | 57 | 235 | 13.0 | 25.2 | 0.00 | 1.51 | 0.48 | 37 | 999.8 |
| 20260504180021 | 57 | 255 | 16.5 | 32.2 | 0.00 | 1.52 | 0.48 | 35 | 999.7 |
| 20260504175509 | 56 | 241 | 17.4 | 32.2 | 0.00 | 1.53 | 0.48 | 36 | 999.7 |
| 20260504175012 | 56 | 252 | 14.8 | 32.2 | 0.00 | 1.55 | 0.48 | 35 | 999.9 |
| 20260504174524 | 56 | 273 | 14.8 | 32.2 | 0.00 | 1.56 | 0.48 | 38 | 1000.0 |
| 20260504174011 | 56 | 264 | 15.6 | 30.4 | 0.00 | 1.58 | 0.48 | 37 | 1000.0 |
| 20260504173510 | 56 | 293 | 17.4 | 30.4 | 0.00 | 1.59 | 0.48 | 37 | 999.5 |
| 20260504173027 | 56 | 274 | 13.9 | 26.1 | 0.00 | 1.60 | 0.48 | 39 | 999.7 |
| 20260504172510 | 55 | 236 | 13.9 | 27.8 | 0.00 | 1.62 | 0.48 | 39 | 999.8 |
| 20260504172011 | 55 | 231 | 15.6 | 28.7 | 0.00 | 1.62 | 0.48 | 41 | 999.8 |
| 20260504171542 | 54 | 285 | 17.4 | 28.7 | 0.00 | 1.63 | 0.48 | 41 | 999.9 |
| 20260504171012 | 54 | 255 | 18.2 | 24.3 | 0.00 | 1.64 | 0.48 | 43 | 1000.1 |
| 20260504170511 | 54 | 291 | 13.9 | 26.9 | 0.00 | 1.65 | 0.48 | 46 | 1000.1 |
| 20260504151010 | 50 | 252 | 18.2 | 27.8 | 0.00 | 1.66 | 0.48 | 62 | 999.4 |
| 20260504150504 | 50 | 246 | 17.4 | 27.8 | 0.00 | 1.66 | 0.48 | 62 | 999.4 |
| 20260504141011 | 48 | 277 | 17.4 | 28.7 | 0.00 | 1.67 | 0.48 | 69 | 999.0 |
| 20260504140510 | 49 | 283 | 13.0 | 29.5 | 0.00 | 1.67 | 0.48 | 70 | 998.9 |
| 20260504130511 | 44 | 281 | 14.8 | 31.3 | 0.00 | 1.70 | 0.48 | 78 | 998.5 |
| 20260504110507 | 41 | 297 | 12.2 | 19.1 | 0.00 | 1.70 | 0.48 | 86 | 997.0 |
| 20260504100510 | 40 | 279 | 15.6 | 28.7 | 0.00 | 1.70 | 0.48 | 89 | 995.9 |
| 20260504081524 | 39 | 38 | 16.5 | 33.9 | 0.03 | 1.66 | 0.45 | 94 | 993.5 |
| 20260504081009 | 39 | 319 | 20.0 | 33.9 | 0.03 | 1.66 | 0.45 | 94 | 993.4 |
| 20260504080508 | 38 | 328 | 19.1 | 27.8 | 0.03 | 1.66 | 0.44 | 94 | 993.3 |
| 20260504050503 | 36 | 297 | 19.1 | 39.1 | 0.19 | 1.55 | 0.33 | 95 | 990.9 |
| 20260504050014 | 35 | 287 | 20.0 | 40.0 | 0.21 | 1.54 | 0.33 | 95 | 990.8 |
| 20260504045503 | 35 | 280 | 25.2 | 40.8 | 0.22 | 1.53 | 0.32 | 95 | 990.8 |
| 20260504045003 | 35 | 286 | 28.7 | 40.8 | 0.22 | 1.51 | 0.30 | 95 | 990.6 |
| 20260504044519 | 35 | 305 | 24.3 | 39.1 | 0.22 | 1.50 | 0.29 | 95 | 990.6 |
| 20260504044003 | 35 | 304 | 24.3 | 41.7 | 0.22 | 1.48 | 0.27 | 95 | 990.7 |
| 20260504043503 | 35 | 311 | 28.7 | 41.7 | 0.21 | 1.46 | 0.25 | 95 | 990.4 |
| 20260504043006 | 35 | 313 | 25.2 | 38.2 | 0.19 | 1.44 | 0.22 | 95 | 990.5 |
| 20260504042504 | 35 | 310 | 23.5 | 36.5 | 0.18 | 1.42 | 0.21 | 95 | 990.7 |
| 20260504042003 | 35 | 285 | 23.5 | 35.6 | 0.16 | 1.40 | 0.18 | 95 | 990.6 |
| 20260504041514 | 35 | 300 | 23.5 | 36.5 | 0.16 | 1.39 | 0.18 | 94 | 990.7 |
| 20260504041004 | 35 | 259 | 21.7 | 36.5 | 0.14 | 1.37 | 0.15 | 95 | 990.7 |
| 20260504040506 | 35 | 319 | 25.2 | 39.1 | 0.13 | 1.35 | 0.14 | 94 | 990.7 |
| 20260504040018 | 35 | 289 | 28.7 | 40.0 | 0.11 | 1.33 | 0.11 | 94 | 990.7 |
| 20260504035503 | 35 | 295 | 24.3 | 40.0 | 0.09 | 1.30 | 0.09 | 94 | 990.6 |
| 20260504035004 | 35 | 6 | 20.9 | 33.9 | 0.08 | 1.29 | 0.07 | 94 | 990.6 |
| 20260504034515 | 36 | 274 | 20.0 | 34.8 | 0.07 | 1.27 | 0.06 | 94 | 990.6 |
| 20260504034010 | 36 | 312 | 16.5 | 34.8 | 0.07 | 1.26 | 0.05 | 94 | 990.5 |
| 20260504033506 | 36 | 327 | 18.2 | 26.9 | 0.05 | 1.25 | 0.03 | 94 | 990.4 |
| 20260504033016 | 36 | 338 | 13.9 | 26.9 | 0.05 | 1.24 | 0.03 | 94 | 990.4 |
| 20260504032507 | 36 | 295 | 13.9 | 26.1 | 0.05 | 1.24 | 0.03 | 94 | 990.4 |
| 20260504032004 | 36 | 332 | 15.6 | 30.4 | 0.05 | 1.23 | 0.02 | 94 | 990.4 |
| 20260504031508 | 36 | 324 | 14.8 | 30.4 | 0.04 | 1.22 | 0.01 | 94 | 990.3 |
| 20260504031004 | 36 | 319 | 13.9 | 28.7 | 0.05 | 1.22 | 0.01 | 94 | 990.3 |
| 20260504030507 | 36 | 346 | 14.8 | 28.7 | 0.04 | 1.22 | 0.00 | 94 | 990.2 |
| 20260504030015 | 36 | 343 | 16.5 | 28.7 | 0.03 | 1.21 | 0.00 | 94 | 990.1 |
| 20260504025507 | 36 | 321 | 14.8 | 26.1 | 0.04 | 1.21 | 1.21 | 94 | 990.2 |
| 20260504025004 | 36 | 356 | 17.4 | 28.7 | 0.03 | 1.20 | 1.20 | 94 | 990.3 |
| 20260504024516 | 36 | 291 | 16.5 | 28.7 | 0.03 | 1.19 | 1.19 | 94 | 990.2 |
| 20260504024004 | 36 | 338 | 19.1 | 28.7 | 0.03 | 1.19 | 1.19 | 94 | 990.2 |
| 20260504023504 | 36 | 346 | 20.0 | 26.9 | 0.03 | 1.19 | 1.19 | 94 | 990.2 |
| 20260504023019 | 36 | 323 | 18.2 | 28.7 | 0.03 | 1.18 | 1.18 | 94 | 990.3 |
| 20260504022507 | 36 | 1 | 16.5 | 28.7 | 0.03 | 1.18 | 1.18 | 94 | 990.4 |
| 20260504022006 | 36 | 351 | 15.6 | 26.1 | 0.03 | 1.18 | 1.18 | 95 | 990.5 |
| 20260504021516 | 36 | 14 | 14.8 | 26.1 | 0.03 | 1.18 | 1.18 | 95 | 990.5 |
| 20260504021007 | 36 | 15 | 14.8 | 24.3 | 0.03 | 1.17 | 1.17 | 95 | 990.6 |
| 20260504020504 | 36 | 12 | 15.6 | 28.7 | 0.04 | 1.17 | 1.17 | 95 | 990.6 |
| 20260504020016 | 36 | 23 | 15.6 | 28.7 | 0.04 | 1.17 | 1.17 | 94 | 990.7 |
| 20260504015504 | 36 | 4 | 18.2 | 28.7 | 0.05 | 1.16 | 1.16 | 94 | 990.8 |
| 20260504015004 | 36 | 349 | 16.5 | 30.4 | 0.06 | 1.16 | 1.16 | 95 | 990.8 |
| 20260504014511 | 35 | 16 | 15.6 | 30.4 | 0.05 | 1.15 | 1.15 | 94 | 991.0 |
| 20260504014006 | 35 | 326 | 12.2 | 28.7 | 0.06 | 1.15 | 1.15 | 94 | 991.0 |
| 20260504013504 | 35 | 25 | 18.2 | 29.5 | 0.06 | 1.15 | 1.15 | 94 | 991.0 |
| 20260504013019 | 35 | 335 | 20.9 | 29.5 | 0.06 | 1.14 | 1.14 | 94 | 991.2 |
| 20260504012504 | 35 | 339 | 19.1 | 27.8 | 0.07 | 1.14 | 1.14 | 94 | 991.1 |
| 20260504012007 | 35 | 349 | 17.4 | 27.8 | 0.07 | 1.14 | 1.14 | 94 | 991.3 |
| 20260504011523 | 35 | 345 | 16.5 | 26.9 | 0.07 | 1.14 | 1.14 | 94 | 991.3 |
| 20260504011007 | 35 | 20 | 15.6 | 30.4 | 0.07 | 1.13 | 1.13 | 94 | 991.3 |
| 20260504010508 | 35 | 333 | 16.5 | 30.4 | 0.07 | 1.12 | 1.12 | 94 | 991.4 |
| 20260504010020 | 35 | 311 | 16.5 | 28.7 | 0.08 | 1.12 | 1.12 | 94 | 991.4 |
| 20260504005504 | 35 | 31 | 16.5 | 26.1 | 0.07 | 1.11 | 1.11 | 94 | 991.5 |
| 20260504005011 | 36 | 26 | 17.4 | 27.8 | 0.08 | 1.10 | 1.10 | 94 | 991.5 |
| 20260504004523 | 36 | 4 | 16.5 | 33.9 | 0.09 | 1.10 | 1.10 | 94 | 991.6 |
| 20260504004008 | 36 | 22 | 16.5 | 33.9 | 0.09 | 1.09 | 1.09 | 94 | 991.6 |
| 20260504003508 | 36 | 43 | 17.4 | 32.2 | 0.10 | 1.09 | 1.09 | 94 | 991.8 |
| 20260504003012 | 36 | 337 | 19.1 | 32.2 | 0.10 | 1.08 | 1.08 | 94 | 991.8 |
| 20260504002505 | 36 | 347 | 15.6 | 27.8 | 0.11 | 1.07 | 1.07 | 94 | 991.8 |
| 20260504002009 | 36 | 13 | 17.4 | 29.5 | 0.11 | 1.07 | 1.07 | 94 | 992.0 |
| 20260504001516 | 36 | 14 | 19.1 | 29.5 | 0.11 | 1.06 | 1.06 | 93 | 992.0 |
| 20260504001007 | 37 | 352 | 18.2 | 31.3 | 0.11 | 1.05 | 1.05 | 94 | 992.1 |
| 20260504000507 | 37 | 25 | 17.4 | 31.3 | 0.11 | 1.04 | 1.04 | 94 | 992.2 |
| 20260504000019 | 37 | 356 | 15.6 | 31.3 | 0.11 | 1.03 | 1.03 | 94 | 992.2 |
| 20260503235508 | 37 | 4 | 17.4 | 33.0 | 0.11 | 1.03 | 1.03 | 94 | 992.2 |
| 20260503235008 | 37 | 357 | 19.1 | 33.0 | 0.10 | 1.01 | 1.01 | 94 | 992.1 |
| 20260503234524 | 37 | 31 | 16.5 | 29.5 | 0.10 | 1.00 | 1.00 | 94 | 992.2 |
| 20260503234009 | 37 | 334 | 20.0 | 29.5 | 0.09 | 1.00 | 1.00 | 94 | 992.2 |
| 20260503233508 | 37 | 10 | 16.5 | 26.9 | 0.09 | 0.99 | 0.99 | 94 | 992.2 |
| 20260503233024 | 37 | 20 | 17.4 | 27.8 | 0.08 | 0.98 | 0.98 | 93 | 992.3 |
| 20260503232510 | 36 | 4 | 16.5 | 28.7 | 0.07 | 0.96 | 0.96 | 93 | 992.3 |